Location: ?ern� Novina
(50.6762°N, 14.8696°E)
Time: 01:31:51
(UTC+00:00)

Cosmos 2360 Rocket - Pass Details

Date: 03 March 2021
Orbit: 832 x 846 km, 71.0° (Epoch: 13 April)

Event Time Altitude Azimuth Distance (km) Brightness Sun altitude
Rises 20:23:49 0° 256° (WSW) 3,391 5.8 -33.7°
Reaches altitude 10° 20:26:48 10° 271° (W) 2,462 5.2 -34.0°
Maximum altitude 20:31:10 23° 322° (NW) 1,746 4.4 -34.6°
Drops below altitude 10° 20:35:35 10° 13° (NNE) 2,477 4.9 -35.1°
Sets 20:38:37 0° 28° (NNE) 3,417 5.5 -35.5°
